Date,TemperatureHighF,TemperatureAvgF,TemperatureLowF,DewpointHighF,DewpointAvgF,DewpointLowF,HumidityHigh,HumidityAvg,HumidityLow,PressureMaxIn,PressureMinIn,WindSpeedMaxMPH,WindSpeedAvgMPH,GustSpeedMaxMPH,PrecipitationSumIn
2013-1-21,59,51,43,39,33,25,70,52,36,30.10,30.02,7,4,16,0.00
2013-1-22,58,50,46,41,38,35,72,62,48,30.04,29.92,8,4,19,0.00
2013-1-23,55,49,45,50,42,12,79,40,1,30.02,29.88,5,2,14,0.40
2013-1-24,58,49,45,52,44,-35,80,13,1,30.12,30.00,5,1,12,0.00
2013-1-25,62,53,48,55,38,-36,79,31,1,30.12,29.97,5,1,11,0.00
2013-1-26,52,46,42,50,40,-21,80,40,1,29.99,29.90,6,3,20,0.00
2013-1-27,51,44,37,42,32,-11,80,66,10,30.09,29.98,12,2,15,0.00
2013-1-28,52,45,40,44,29,-52,80,62,1,30.21,30.09,10,3,15,0.00
2013-1-29,55,46,41,46,11,-100,79,48,1,30.28,30.20,12,2,16,0.00
2013-1-30,65,55,47,51,44,39,79,67,50,30.25,30.17,6,1,6,0.00
2013-1-31,63,54,47,49,44,41,79,71,55,30.20,30.10,7,1,10,0.00
2013-2-1,62,53,46,46,43,40,79,69,53,30.12,30.04,13,3,16,0.00
2013-2-2,57,47,42,50,16,-100,79,34,1,30.22,30.12,8,2,11,0.00
2013-2-3,56,45,39,49,-42,-100,78,25,1,30.17,30.07,5,1,10,0.01
2013-2-4,54,45,40,47,-51,-100,77,18,1,30.11,30.00,7,1,9,0.01
2013-2-5,49,44,41,42,-9,-100,75,29,1,30.04,30.00,10,2,13,0.00
2013-2-6,53,45,38,45,10,-54,79,41,1,30.12,30.06,5,1,16,0.00
2013-2-7,52,44,39,45,0,-54,79,35,1,30.09,29.92,6,2,17,0.28
2013-2-8,51,42,34,43,-14,-100,79,39,1,29.95,29.87,9,1,13,0.09
2013-2-9,56,46,37,38,30,16,79,57,30,30.00,29.93,7,1,11,0.00
2013-2-10,60,49,42,45,31,16,78,51,30,30.03,29.94,9,1,10,0.00
2013-2-11,63,52,45,44,32,22,77,48,28,30.13,29.99,14,2,18,0.00
2013-2-12,59,47,40,48,16,-100,78,52,1,30.29,30.12,6,1,8,0.00
2013-2-13,61,51,44,48,39,0,78,63,15,30.25,30.13,7,1,7,0.00
2013-2-14,69,57,49,50,45,40,76,64,40,30.17,30.07,7,1,11,0.00
2013-2-15,67,59,50,44,40,36,65,50,33,30.18,30.11,12,2,13,0.00
2013-2-16,68,56,43,52,30,-100,76,53,1,30.15,29.99,13,2,13,0.00
2013-2-17,60,48,39,48,-2,-100,78,38,1,29.98,29.90,6,2,13,0.00
2013-2-18,49,43,40,42,5,-52,79,46,1,29.95,29.88,16,2,17,0.00
2013-2-19,44,40,34,36,-2,-100,79,43,1,29.88,29.67,19,3,27,0.23
2013-2-20,51,42,34,43,28,-11,79,59,10,30.00,29.79,13,2,17,0.00
2013-2-21,54,45,38,42,31,2,78,59,18,30.10,29.98,14,2,17,0.00
2013-2-22,60,47,41,45,8,-100,78,49,1,30.18,30.10,10,2,18,0.00
2013-2-23,52,45,39,40,-4,-100,78,49,1,30.19,30.10,12,2,21,0.00
2013-2-24,60,47,37,39,32,24,79,58,27,30.18,30.10,9,1,12,0.00
2013-2-25,56,46,39,48,13,-100,77,50,1,30.20,30.12,12,2,16,0.00
2013-2-26,64,50,40,40,33,-30,78,55,4,30.14,30.08,9,1,14,0.00
2013-2-27,66,52,42,43,12,-100,76,41,1,30.29,30.13,12,1,15,0.00
2013-2-28,61,50,44,53,-36,-100,76,27,1,30.38,30.29,14,1,14,0.00
2013-3-1,71,58,48,56,31,-100,75,53,1,30.35,30.15,10,1,12,0.00
2013-3-2,67,58,52,55,49,38,76,71,57,30.15,29.99,11,2,12,0.00
2013-3-3,60,52,45,50,35,-100,75,55,1,30.01,29.95,7,2,14,0.00
2013-3-4,57,44,39,48,-30,-100,78,22,1,30.08,29.98,10,1,12,0.00
2013-3-5,48,43,38,39,-28,-100,72,27,1,29.99,29.73,32,8,38,0.63
2013-3-6,52,46,40,45,-18,-100,78,39,1,29.98,29.75,24,5,37,0.14
2013-3-7,50,43,38,42,-62,-100,78,19,1,29.92,29.80,7,1,10,0.04
2013-3-8,51,44,39,44,0,-100,78,47,1,29.97,29.78,14,2,22,0.01
2013-3-9,62,49,39,49,9,-100,77,47,1,30.24,29.96,8,1,12,0.00
2013-3-10,66,56,46,50,40,10,76,57,23,30.26,30.17,6,1,9,0.00
2013-3-11,70,56,44,52,13,-100,74,39,1,30.17,30.03,6,1,9,0.00
2013-3-12,72,55,41,58,13,-100,76,47,1,30.07,30.00,8,1,10,0.00
2013-3-13,76,61,50,58,49,42,75,66,48,30.07,29.98,7,1,11,0.00
2013-3-14,65,56,46,54,44,6,76,67,19,30.08,29.98,10,1,13,0.00
2013-3-15,68,53,44,52,30,-100,76,56,1,30.05,29.97,12,1,14,0.00
2013-3-16,62,50,41,50,-11,-100,76,39,1,30.05,29.97,13,2,16,0.01
2013-3-17,62,49,43,50,12,-100,76,44,1,30.07,29.99,11,2,17,0.00
2013-3-18,64,51,43,51,39,-15,76,64,7,30.04,29.95,7,1,12,0.00
2013-3-19,62,52,43,49,30,-100,76,52,1,30.05,29.97,12,1,17,0.03
2013-3-20,51,48,42,50,-43,-100,66,11,1,30.07,29.98,11,3,18,0.24
2013-3-21,57,46,36,48,-16,-100,77,37,1,30.06,29.96,12,1,12,0.01
2013-3-22,60,48,40,45,28,-100,77,57,1,30.06,29.97,6,1,13,0.00
2013-3-23,64,52,44,46,38,31,76,61,35,30.06,29.97,6,1,10,0.00
2013-3-24,67,51,41,52,32,-100,76,62,1,30.00,29.90,11,1,12,0.00
2013-3-25,54,44,39,46,-34,-100,77,29,1,29.96,29.87,10,2,16,0.00
2013-3-26,62,49,41,50,-17,-100,76,37,1,29.92,29.87,10,1,12,0.00
2013-3-27,55,49,45,40,-56,-100,59,13,1,29.94,29.86,9,2,12,0.01
2013-3-28,64,52,46,55,-50,-100,75,22,1,30.02,29.93,8,2,11,0.00
2013-3-29,73,57,46,55,1,-100,75,44,1,30.01,29.93,13,2,14,0.01
2013-3-30,66,53,47,52,-19,-100,75,31,1,29.99,29.92,14,3,15,0.25
2013-3-31,60,51,48,52,-72,-100,76,12,1,29.99,29.91,13,4,22,0.48
2013-4-1,60,51,44,53,-61,-100,78,19,1,30.09,29.96,7,1,12,0.09
2013-4-2,62,50,43,55,-53,-100,79,24,1,30.11,30.03,9,1,9,0.00
2013-4-3,72,52,41,59,-31,-100,79,30,1,30.07,29.92,7,1,10,0.01
2013-4-4,51,49,45,42,-96,-100,76,2,1,30.05,29.89,15,4,19,0.86
2013-4-5,59,52,48,52,-33,-100,80,28,1,30.12,30.05,10,2,12,0.01
2013-4-6,61,52,48,54,-43,-100,80,25,1,30.11,30.07,7,2,12,0.03
2013-4-22,84,72,63,55,46,37,53,41,28,29.87,29.77,4,1,14,0.00
2013-4-23,78,64,46,53,37,22,78,40,18,29.84,29.76,5,2,16,0.00
2013-4-24,61,51,43,51,37,-19,78,51,1,29.87,29.74,9,3,18,0.00
2013-4-25,55,50,46,50,40,-48,78,30,1,30.06,29.86,9,3,19,0.00
2013-4-26,63,50,43,53,43,-49,78,29,1,30.15,30.05,3,1,10,0.00
2013-4-27,72,51,42,59,50,-12,78,29,1,30.16,30.00,3,1,10,0.00
2013-4-28,80,64,42,61,49,11,78,51,1,30.00,29.78,3,1,9,0.00
2013-4-29,83,66,47,58,49,34,77,57,37,29.81,29.71,15,2,19,0.00
2013-4-30,71,58,45,50,38,-13,77,50,8,29.79,29.72,11,2,14,0.00
2013-5-1,82,70,60,44,26,8,37,20,10,29.99,29.77,11,1,14,0.00
2013-5-2,89,73,64,44,25,14,23,17,12,30.06,29.98,8,2,12,0.00
2013-5-3,86,73,64,54,31,20,39,22,14,29.98,29.69,10,1,13,0.00
2013-5-4,84,68,49,49,14,-100,75,26,1,29.69,29.48,24,4,24,0.00
2013-5-5,59,52,49,51,-4,-100,76,35,1,29.74,29.50,33,11,33,0.01
2013-5-6,66,57,51,53,40,-11,75,55,7,29.89,29.74,14,4,17,0.00
2013-5-7,69,57,47,55,3,-100,75,34,1,29.97,29.88,12,3,15,0.00
2013-5-8,57,49,46,50,-57,-100,77,16,1,30.08,29.96,8,1,14,0.00
2013-5-9,58,50,45,50,-43,-100,76,27,1,30.10,30.04,11,2,16,0.00
2013-5-10,67,51,44,58,-50,-100,76,23,1,30.12,30.06,9,2,12,0.00
2013-5-11,80,58,42,63,-19,-100,75,32,1,30.07,29.99,7,2,12,0.00
2013-5-12,70,60,47,60,32,-100,75,58,1,30.08,29.96,9,2,18,0.00
2013-5-13,68,55,44,57,-5,-100,75,43,1,30.02,29.88,15,2,17,0.01
2013-5-14,68,54,44,53,0,-100,75,40,1,29.92,29.85,12,2,19,0.00
2013-5-15,59,50,43,50,-32,-100,75,31,1,29.98,29.91,16,4,20,0.00
2013-5-16,66,53,47,57,-44,-100,76,24,1,29.97,29.90,13,3,17,0.00
2013-5-17,63,52,44,52,-16,-100,76,39,1,30.00,29.89,16,3,22,0.00
2013-5-18,65,53,43,51,-14,-100,75,35,1,30.06,29.99,17,2,19,0.00
2013-5-19,76,60,47,52,24,-100,75,46,1,30.05,29.90,13,1,16,0.00
2013-5-20,84,66,45,51,25,-100,73,37,1,29.93,29.85,11,2,15,0.00
2013-5-21,59,51,44,49,24,-100,74,53,1,29.94,29.82,20,5,27,0.00
2013-5-22,57,48,40,42,30,-50,76,57,1,29.97,29.85,17,3,18,0.00
2013-5-23,63,50,41,46,-16,-100,75,34,1,29.95,29.84,15,3,19,0.00
2013-5-24,64,50,40,48,-17,-100,74,35,1,29.93,29.88,14,2,22,0.01
2013-5-25,62,50,41,49,-20,-100,75,37,1,29.97,29.88,18,3,29,0.00
2013-5-26,65,54,46,54,43,4,75,31,1,30.06,29.96,6,3,20,0.00
2013-5-27,58,51,46,40,-28,-100,49,3,1,30.05,29.92,11,2,21,0.14
2013-5-28,63,55,48,55,-41,-100,74,25,1,29.93,29.85,11,2,18,0.04
2013-5-29,64,54,45,55,-18,-100,75,33,1,29.92,29.85,15,3,22,0.01
2013-5-30,64,52,43,51,-5,-100,75,43,1,29.93,29.87,17,2,17,0.01
2013-5-31,81,61,46,54,43,-11,75,54,8,29.94,29.85,10,2,20,0.00
2013-6-1,83,64,48,56,48,34,74,56,35,29.86,29.71,19,2,19,0.00
2013-6-2,73,58,44,56,48,-7,74,46,1,29.71,29.59,4,2,11,0.00
2013-6-3,64,55,47,53,0,-100,74,44,1,29.79,29.60,16,5,17,0.00
2013-6-4,60,51,47,51,-42,-100,73,23,1,29.90,29.78,17,5,19,0.00
2013-6-5,66,52,46,55,-46,-100,74,24,1,29.94,29.86,14,3,15,0.00
2013-6-6,74,55,45,59,-40,-100,73,22,1,29.89,29.79,10,2,11,0.00
2013-6-7,87,66,44,64,-8,-100,73,27,1,29.80,29.63,6,1,7,0.00
2013-6-8,88,77,56,63,56,40,74,49,32,29.68,29.60,11,2,14,0.00
2013-6-9,60,52,49,50,5,-100,69,10,1,29.83,29.70,19,6,22,0.01
2013-6-10,57,52,49,43,-53,-100,60,16,1,29.89,29.73,14,4,24,0.04
2013-6-11,72,57,49,58,-8,-100,74,39,1,29.92,29.82,10,1,16,0.00
2013-6-12,66,55,44,52,10,-100,74,43,1,29.92,29.83,15,2,26,0.00
2013-6-13,68,55,43,51,22,-100,74,49,1,30.03,29.92,11,2,17,0.00
2013-6-14,83,63,45,54,36,-100,74,47,1,29.93,29.75,13,2,14,0.00
2013-6-15,73,55,42,56,-11,-100,73,37,1,29.91,29.74,12,2,13,0.00
2013-6-16,68,55,44,54,-2,-100,74,42,1,30.02,29.91,17,3,22,0.01
2013-6-17,66,54,45,56,-34,-100,73,29,1,30.02,29.94,17,4,21,0.00
2013-6-18,64,53,47,52,-33,-100,74,29,1,29.97,29.92,16,4,21,0.00
2013-6-19,65,54,46,51,-3,-100,74,40,1,29.99,29.94,13,4,27,0.00
2013-6-20,67,55,46,51,0,-100,73,38,1,29.94,29.89,13,3,21,0.00
2013-6-21,73,56,44,52,4,-100,74,43,1,29.91,29.84,12,2,22,0.00
2013-6-22,79,63,50,54,47,-32,73,57,2,29.85,29.77,15,2,20,0.00
2013-6-23,57,54,49,50,-12,-15,1,1,1,29.81,29.74,8,3,24,0.00
2013-6-24,56,52,50,-15,-15,-15,1,1,1,29.82,29.72,6,2,13,0.14
2013-6-25,58,55,52,-15,-15,-15,1,1,1,29.92,29.80,11,6,25,0.71
2013-6-26,77,64,55,67,4,-100,77,26,1,29.98,29.90,11,2,11,0.00
2013-6-27,76,64,53,63,-3,-100,77,42,1,30.02,29.94,14,2,18,0.01
2013-6-28,90,75,63,66,59,53,76,59,43,29.94,29.82,10,1,16,0.00
2013-6-29,93,76,58,60,54,48,76,48,29,29.83,29.72,17,2,21,0.00
2013-6-30,80,63,52,60,41,-100,76,55,1,29.76,29.69,16,-26,23,0.00
2013-7-1,92,72,51,65,34,-100,76,44,1,29.75,29.71,7,1,13,0.00
2013-7-2,90,76,58,66,58,31,75,55,36,29.80,29.69,15,3,19,0.00
2013-7-3,92,71,53,66,26,-100,75,42,1,29.80,29.67,10,1,14,0.00
2013-7-4,92,75,57,64,57,46,75,56,37,29.68,29.60,14,2,21,0.00
2013-7-5,73,57,46,57,-7,-100,76,38,1,29.69,29.61,15,2,17,0.00
2013-7-6,72,51,45,57,-60,-100,76,18,1,29.71,29.64,6,1,7,0.00
2013-7-14,71,55,44,57,51,3,74,29,1,29.92,29.83,3,1,11,0.00
2013-7-15,62,50,44,53,49,-16,75,17,1,29.86,29.78,9,4,18,0.00
2013-7-16,62,53,47,53,36,-44,73,17,1,29.96,29.78,6,3,15,0.00
2013-7-17,72,58,48,59,50,-44,73,28,1,30.01,29.94,4,1,13,0.00
2013-7-18,78,58,44,61,52,-26,74,29,1,29.98,29.86,4,1,11,0.00
2013-7-19,80,58,44,62,52,-1,74,29,1,29.87,29.76,4,2,11,0.00
2013-7-20,81,61,44,61,53,-22,74,32,1,29.77,29.67,7,1,11,0.00
2013-7-21,81,62,45,57,50,18,74,35,1,29.77,29.67,12,3,19,0.00
2013-7-22,79,63,52,60,13,-100,73,46,1,29.87,29.77,15,5,18,0.00
2013-7-23,75,63,52,60,36,-100,73,56,1,29.92,29.84,10,2,14,0.00
2013-7-24,80,64,51,60,5,-100,73,40,1,29.90,29.83,7,1,11,0.00
2013-7-25,79,60,47,58,-10,-100,73,34,1,29.94,29.82,9,2,10,0.00
2013-7-26,77,58,47,61,-26,-100,73,30,1,30.01,29.91,11,2,12,0.00
2013-7-27,77,57,48,60,-38,-100,74,26,1,29.94,29.79,12,2,12,0.00
2013-7-28,70,56,47,58,-24,-100,74,33,1,29.79,29.74,11,2,14,0.00
2013-7-29,60,51,47,50,-25,-100,69,13,1,29.94,29.75,15,4,17,0.00
2013-7-30,71,54,47,58,-48,-100,74,23,1,30.04,29.94,11,2,12,0.00
2013-7-31,70,56,46,57,-27,-100,74,31,1,30.00,29.93,14,3,19,0.00
2013-8-1,68,55,48,55,-34,-100,74,28,1,29.99,29.90,13,3,22,0.00
2013-8-2,78,57,45,58,-27,-100,74,29,1,29.90,29.82,9,1,11,0.01
2013-8-3,74,58,45,58,-19,-100,75,33,1,29.89,29.82,7,1,11,0.00
2013-8-4,72,54,46,58,-12,-100,75,24,1,29.93,29.87,12,2,15,0.00
2013-8-5,71,53,47,58,-49,-100,75,23,1,29.96,29.87,6,2,9,0.01
2013-8-6,66,53,46,56,-49,-100,75,23,1,29.97,29.89,15,2,18,0.01
2013-8-7,63,55,49,55,-48,-100,75,20,1,30.03,29.96,13,3,17,0.05
2013-8-8,68,54,48,58,-54,-100,76,20,1,29.96,29.88,10,1,16,0.05
2013-8-9,67,54,47,58,-43,-100,77,25,1,29.92,29.84,12,2,14,0.01
2013-8-10,71,56,49,60,-48,-100,78,23,1,29.98,29.91,11,1,13,0.01
2013-8-11,73,56,48,60,-44,-100,77,24,1,29.95,29.87,7,1,12,0.00
2013-8-12,80,59,47,62,-29,-100,78,27,1,29.91,29.85,6,1,9,0.01
2013-8-13,84,63,47,62,29,-100,78,51,1,29.90,29.84,9,1,13,0.00
2013-8-14,73,58,47,59,-28,-100,78,26,1,29.90,29.84,15,2,19,0.00
2013-8-15,78,63,55,67,-24,-100,77,25,1,29.89,29.83,12,2,16,0.00
2013-8-16,80,62,52,64,-38,-100,78,25,1,29.90,29.84,12,2,21,0.01
2013-8-17,74,62,51,58,37,-100,79,50,1,29.89,29.78,15,2,19,0.00
2013-8-18,92,73,51,65,49,-43,78,46,1,29.79,29.68,9,1,11,0.00
2013-8-19,88,75,57,62,55,28,77,51,32,29.78,29.67,11,2,13,0.00
2013-8-20,78,60,52,58,-23,-100,78,29,1,29.82,29.73,11,3,12,0.00
2013-8-21,75,58,51,58,-21,-100,79,29,1,29.87,29.78,11,2,14,0.00
2013-8-22,70,57,49,57,-12,-100,79,35,1,29.90,29.82,12,2,15,0.00
2013-8-23,73,58,50,59,-32,-100,79,28,1,29.84,29.74,14,2,19,0.00
2013-8-24,73,59,49,60,-29,-100,79,31,1,29.81,29.74,10,2,17,0.00
2013-8-25,74,62,56,65,-51,-100,78,23,1,29.85,29.80,12,2,16,0.00
2013-8-26,71,58,52,60,-4,-44,78,25,1,29.94,29.83,6,2,14,0.00
2013-8-27,76,62,53,60,29,-44,78,48,1,29.82,29.75,6,2,13,0.00
2013-8-28,77,61,52,66,-8,-41,78,23,1,29.86,29.76,4,2,13,0.00
2013-8-29,78,62,55,65,-6,-40,79,24,1,29.98,29.86,4,2,19,0.00
2013-8-30,82,65,54,66,22,-40,79,42,1,29.96,29.84,9,2,21,0.00
2013-8-31,74,60,52,61,7,-100,79,43,1,29.89,29.83,7,2,13,0.00
2013-9-1,76,62,50,62,-12,-100,79,33,1,29.87,29.81,8,2,17,0.00
2013-9-2,76,63,56,65,-32,-100,79,29,1,29.88,29.81,12,2,14,0.00
2013-9-3,74,62,51,60,-12,-100,80,35,1,29.91,29.83,14,2,17,0.00
2013-9-4,71,61,53,60,-27,-100,80,32,1,29.94,29.86,15,3,18,0.00
2013-9-5,70,60,52,59,-6,-100,80,40,1,29.93,29.86,13,3,19,0.00
2013-9-6,87,69,53,57,31,-100,80,38,1,29.90,29.75,14,1,14,0.00
2013-9-7,93,78,66,54,50,46,58,40,22,29.77,29.71,13,2,15,0.00
2013-9-8,84,70,57,62,54,47,78,57,43,29.76,29.68,6,1,8,0.00
2013-9-9,90,73,60,60,53,41,77,51,29,29.71,29.61,7,1,12,0.00
2013-9-10,67,58,53,59,-33,-100,79,29,1,29.82,29.61,14,4,18,0.00
2013-9-11,64,59,55,58,-48,-100,79,22,1,29.92,29.81,10,3,14,0.01
2013-9-12,72,59,52,63,-51,-100,81,21,1,29.91,29.82,9,1,15,0.03
2013-9-13,71,56,49,61,-50,-100,81,23,1,29.83,29.70,13,2,17,0.01
2013-9-14,64,54,49,59,-62,-100,82,19,1,29.76,29.68,15,3,19,0.01
2013-9-15,73,60,51,60,-9,-100,81,30,1,29.78,29.69,14,3,21,0.00
2013-9-16,76,59,52,61,-35,-100,81,28,1,29.81,29.73,16,3,23,0.01
2013-9-17,64,56,51,56,-5,-100,82,48,1,29.81,29.73,16,4,23,0.00
2013-9-18,80,61,52,53,49,43,82,67,35,29.83,29.75,15,2,19,0.00
2013-9-19,84,67,53,55,49,40,81,54,32,29.77,29.67,9,2,14,0.00
2013-9-20,69,59,52,62,-29,-100,81,33,1,29.77,29.67,13,3,19,0.06
2013-9-21,64,57,53,56,-60,-100,82,17,1,29.82,29.71,15,3,15,0.65
2013-9-22,68,58,48,56,-16,-100,82,35,1,29.93,29.82,14,2,19,0.01
2013-9-23,76,62,54,62,40,-100,81,58,1,29.93,29.85,11,1,17,0.00
2013-9-24,68,59,52,55,47,-10,81,67,7,29.91,29.83,14,4,20,0.00
2013-9-25,63,54,48,51,16,-100,81,54,1,29.86,29.75,19,4,23,0.00
2013-9-26,71,56,45,48,43,36,82,65,29,29.90,29.77,9,1,15,0.00
2013-9-27,75,62,54,44,39,29,62,43,24,30.00,29.90,10,2,16,0.00
2013-9-28,78,64,54,55,10,-100,79,30,1,29.99,29.93,16,2,17,0.00
2013-9-29,70,60,53,62,-31,-100,80,26,1,30.02,29.97,17,3,20,0.01
2013-9-30,71,59,52,63,-24,-100,83,39,1,29.99,29.89,12,2,16,0.02
2013-10-1,67,56,49,51,38,-100,83,62,1,29.92,29.85,16,3,22,0.00
2013-10-2,67,56,50,52,47,43,81,72,52,29.93,29.84,13,2,20,0.00
2013-10-3,70,57,47,45,39,28,80,54,25,30.00,29.89,15,2,19,0.00
2013-10-4,77,68,60,28,25,22,28,20,13,30.00,29.89,16,3,26,0.00
2013-10-5,82,70,62,30,26,22,27,19,13,30.09,29.99,13,2,15,0.00
2013-10-6,82,70,61,35,30,24,31,24,14,30.03,29.90,10,2,12,0.00
2013-10-7,80,66,53,47,35,26,79,37,14,29.90,29.79,14,2,14,0.00
2013-10-8,74,58,49,49,46,40,81,64,33,29.82,29.62,12,2,16,0.00
2013-10-9,65,55,45,48,34,-49,82,49,1,29.68,29.55,9,1,17,0.00
2013-10-10,66,58,47,49,43,37,81,60,45,29.91,29.67,9,2,12,0.00
2013-10-11,65,51,43,51,22,-100,82,54,1,30.01,29.90,6,1,11,0.00
2013-10-12,67,54,49,54,45,13,82,70,22,29.92,29.83,12,2,16,0.00
2013-10-13,72,57,45,52,0,-100,82,34,1,29.97,29.84,13,2,16,0.00
2013-10-14,77,64,56,44,37,27,47,37,25,30.02,29.92,9,1,15,0.00
2013-10-15,78,66,57,40,33,30,42,30,17,29.95,29.87,14,1,16,0.00
2013-10-16,81,68,60,40,33,28,42,28,19,29.99,29.89,11,2,14,0.00
2013-10-17,80,67,53,42,33,27,64,29,18,29.98,29.88,7,1,12,0.00
2013-10-18,76,64,57,52,38,29,70,40,30,29.95,29.88,6,1,6,0.00
2013-10-19,82,66,57,50,40,34,59,40,22,29.98,29.91,6,2,10,0.00
2013-10-20,74,59,44,52,38,-100,82,51,1,29.92,29.83,6,1,7,0.00
2013-10-21,68,53,40,54,-8,-100,83,43,1,29.92,29.84,6,1,6,0.01
2013-10-22,77,55,42,54,13,-100,82,48,1,29.92,29.84,8,2,11,0.00
2013-10-23,68,51,39,53,-22,-100,82,35,1,29.89,29.82,7,1,9,0.00
2013-10-24,59,48,43,51,-53,-100,83,21,1,30.04,29.88,7,1,10,0.00
2013-10-25,66,53,44,52,-8,-100,82,44,1,30.09,30.01,8,1,11,0.01
2013-10-26,77,62,52,53,41,29,69,47,32,30.06,29.93,4,1,7,0.00
2013-10-27,60,49,43,49,-10,-100,82,39,1,29.92,29.59,14,3,24,0.00
2013-10-28,58,50,44,48,-13,-100,82,33,1,29.75,29.58,16,3,18,0.00
2013-10-29,60,51,45,48,15,-100,81,45,1,29.98,29.74,13,3,15,0.00
2013-10-30,64,52,44,50,24,-100,81,59,1,30.07,29.96,9,1,11,0.00
2013-10-31,72,59,50,48,44,34,73,57,40,30.09,29.99,11,1,11,0.00
2013-11-1,71,62,54,46,44,40,67,52,38,30.06,29.93,12,2,13,0.00
2013-11-2,66,56,45,52,44,36,80,65,48,29.94,29.83,13,2,17,0.00
2013-11-3,60,49,42,43,38,27,81,68,40,29.98,29.86,12,1,16,0.00
2013-11-4,65,52,42,41,37,28,81,58,29,30.01,29.84,12,1,16,0.00
2013-11-5,72,60,51,41,35,-100,58,41,25,30.12,29.99,8,-9,14,0.00
2013-11-6,69,61,55,39,36,33,49,41,30,30.17,30.07,9,2,11,0.00
2013-11-7,72,59,48,49,7,-100,79,35,1,30.08,29.99,10,1,17,0.00
2013-11-8,72,55,45,53,16,-100,82,49,1,30.00,29.89,11,1,15,0.00
2013-11-9,70,57,47,48,43,25,82,60,34,29.95,29.88,10,2,13,0.00
2013-11-10,62,52,46,50,6,-100,81,48,1,30.03,29.92,9,2,13,0.00
2013-11-11,68,53,41,52,-7,-100,81,34,1,30.08,30.00,6,1,9,0.01
2013-11-12,70,58,53,53,44,-25,80,62,3,30.18,30.06,16,1,19,0.00
2013-11-13,75,58,46,55,13,-100,80,48,1,30.17,30.01,6,1,13,0.00
2013-11-14,61,50,43,55,-14,-100,81,40,1,30.02,29.80,9,2,14,0.01
2013-11-15,62,50,44,46,23,-100,81,49,1,29.82,29.66,11,2,24,0.00
2013-11-16,59,48,42,49,-26,-100,80,31,1,29.85,29.69,12,2,23,0.01
2013-11-17,60,48,42,51,-26,-100,82,36,1,30.01,29.84,5,0,8,0.00
2013-11-18,54,49,44,48,30,-100,81,57,1,30.07,29.99,10,2,16,0.01
2013-11-19,50,48,47,-100,-100,-100,1,1,1,30.02,29.90,13,4,17,0.21
2013-11-20,53,50,45,50,50,50,1,1,1,29.87,29.78,7,2,13,0.75
2013-11-21,59,51,43,50,37,18,83,23,1,29.91,29.83,13,4,31,0.00
2013-11-22,68,60,53,19,11,6,25,14,10,29.94,29.83,9,4,24,0.00
2013-11-23,61,53,46,43,30,11,79,44,14,30.01,29.85,5,2,20,0.00
2013-11-24,62,52,46,45,40,36,82,65,45,30.16,30.00,5,1,8,0.00
2013-11-25,62,52,46,46,42,37,80,69,53,30.24,30.16,10,2,12,0.00
2013-11-26,59,52,47,43,40,38,80,66,51,30.18,29.95,11,3,16,0.00
2013-11-27,60,52,46,45,42,40,79,70,57,29.95,29.76,17,4,17,0.00
2013-11-28,69,56,51,46,41,37,70,57,37,29.98,29.77,9,2,10,0.00
2013-11-29,67,57,52,48,43,36,82,60,43,30.12,29.97,6,1,10,0.00
2013-11-30,68,57,50,50,43,36,83,61,46,30.18,30.10,4,1,5,0.00
2013-12-1,69,60,52,48,44,36,73,55,43,30.24,30.13,5,1,10,0.00
2013-12-2,58,52,45,51,-15,-100,83,41,1,30.13,29.89,16,2,20,0.04
2013-12-3,49,44,38,39,11,-100,84,60,1,29.88,29.76,13,3,21,0.00
2013-12-4,49,41,34,33,29,21,81,65,50,30.01,29.88,6,1,9,0.00
2013-12-5,48,40,34,33,24,15,80,54,32,30.08,30.00,10,2,12,0.00
2013-12-6,48,41,33,37,-6,-100,84,50,1,30.11,29.84,29,4,40,0.82
2013-12-7,46,37,31,35,-3,-100,84,52,1,30.17,29.85,13,2,19,0.00
2013-12-8,42,35,30,30,25,17,81,66,42,30.23,30.14,8,1,11,0.00
2013-12-9,46,38,32,26,20,14,66,48,34,30.34,30.23,6,2,11,0.00
2013-12-10,49,40,33,32,27,25,80,59,39,30.33,30.13,13,2,13,0.00
2013-12-11,53,45,37,33,30,25,72,56,44,30.17,30.10,9,3,12,0.00
2013-12-12,58,46,41,40,14,-100,81,49,1,30.19,30.09,10,3,13,0.00
2013-12-13,60,48,38,45,-3,-100,82,39,1,30.26,30.15,5,0,6,0.01
2013-12-14,58,51,46,40,37,34,70,59,48,30.31,30.22,9,2,11,0.00
2013-12-15,61,51,44,38,36,33,71,57,36,30.28,30.17,12,3,13,0.00
2013-12-16,64,55,48,38,36,31,65,49,33,30.17,30.04,13,4,15,0.00
2013-12-17,62,55,49,41,38,34,66,52,41,30.10,29.94,12,4,14,0.00
2013-12-18,62,51,44,48,-2,-100,81,38,1,29.95,29.68,14,2,20,0.00
2013-12-19,54,46,40,42,28,-100,82,58,1,29.86,29.66,16,2,21,0.00
2013-12-20,60,50,43,41,25,10,80,40,21,29.93,29.85,5,1,12,0.00
2013-12-21,57,49,44,50,-22,-100,82,38,1,30.00,29.89,9,1,16,0.00
2013-12-22,65,55,49,47,41,37,78,60,44,30.20,30.00,6,1,11,0.00
2013-12-23,62,54,48,42,39,36,66,57,44,30.31,30.19,7,2,9,0.00
2013-12-24,71,58,52,47,43,39,70,57,38,30.25,30.12,5,1,6,0.00
2013-12-25,61,54,48,42,39,34,65,55,40,30.21,30.11,10,2,14,0.00
2013-12-26,63,55,49,40,36,32,65,49,33,30.17,30.09,14,4,15,0.00
2013-12-27,59,54,50,40,36,32,66,52,41,30.15,30.04,10,3,12,0.00
2013-12-28,64,56,46,38,32,20,64,41,23,30.06,29.96,5,0,9,0.00
2013-12-29,60,55,50,35,25,13,56,32,17,30.10,29.99,10,2,14,0.00
2013-12-30,63,52,46,41,36,25,70,56,35,30.17,30.08,11,3,14,0.00
2013-12-31,62,50,40,44,36,29,82,60,35,30.19,30.08,10,1,11,0.00
2014-1-1,67,57,48,43,35,25,61,44,29,30.12,30.04,3,0,4,0.00
2014-1-2,65,56,49,36,34,30,53,44,32,30.10,29.97,11,3,17,0.00